This demonstration page uses our WeatherBlox Daily Observations layout. Learn more.

Left ArrowRight Arrow

53.62937, 11.41316

Hourly Observations for June 21, 2015

Temp ( °F °C ) Dew Point ( °F °C ) Humidity (%) Winds ( mph kmh ) Pressure ( in mb ) Visibility ( mi km ) Precip ( " mm )
6:20 am 06:20 Mostly Cloudy 48 9 48 9 100 100 W 6 9 30.00 1016 30 48 N/A
6:50 am 06:50 Mostly Cloudy 50 10 48 9 94 94 W 7 11 30.00 1016 30 48 N/A
7:20 am 07:20 Mostly Cloudy 50 10 48 9 94 94 W 8 13 30.00 1016 30 48 N/A
7:50 am 07:50 Mostly Cloudy 52 11 48 9 88 88 W 9 15 30.00 1016 30 48 N/A
8:20 am 08:20 Mostly Cloudy 54 12 50 10 88 88 W 7 11 30.00 1016 30 48 N/A
8:50 am 08:50 Mostly Cloudy 54 12 48 9 82 82 W 7 11 30.00 1016 30 48 N/A
9:20 am 09:20 Mostly Cloudy 54 12 46 8 77 77 WNW 7 11 30.00 1016 30 48 N/A
9:50 am 09:50 Mostly Cloudy 54 12 46 8 77 77 WNW 6 9 30.00 1016 30 48 N/A
10:20 am 10:20 Mostly Cloudy 55 13 46 8 72 72 WNW 7 11 30.00 1016 30 48 N/A
10:50 am 10:50 Mostly Cloudy 55 13 46 8 72 72 W 7 11 30.00 1016 30 48 N/A
11:20 am 11:20 Mostly Cloudy 59 15 48 9 68 68 W 5 7 30.00 1016 30 48 N/A
11:50 am 11:50 Mostly Cloudy 59 15 46 8 63 63 WSW 7 11 30.00 1016 30 48 N/A
12:20 pm 12:20 Mostly Cloudy 59 15 46 8 63 63 W 6 9 29.97 1015 30 48 N/A
12:50 pm 12:50 Mostly Cloudy 59 15 46 8 63 63 WSW 6 9 29.97 1015 30 48 N/A
1:20 pm 13:20 Mostly Cloudy 61 16 46 8 59 59 WSW 6 9 29.97 1015 30 48 N/A
1:50 pm 13:50 Mostly Cloudy 61 16 46 8 59 59 VRB 6 9 29.97 1015 30 48 N/A
2:20 pm 14:20 Mostly Cloudy 61 16 46 8 59 59 W 8 13 29.97 1015 30 48 N/A
2:50 pm 14:50 Mostly Cloudy 63 17 46 8 56 56 WSW 8 13 29.94 1014 30 48 N/A
3:20 pm 15:20 Mostly Cloudy 63 17 45 7 52 52 VRB 5 7 29.94 1014 30 48 N/A
3:50 pm 15:50 Mostly Cloudy 63 17 45 7 52 52 SW 6 9 29.94 1014 30 48 N/A
4:20 pm 16:20 Mostly Sunny 66 19 45 7 46 46 S 6 9 29.91 1013 30 48 N/A
4:50 pm 16:50 Mostly Sunny 63 17 46 8 56 56 SW 8 13 29.91 1013 30 48 N/A
5:20 pm 17:20 Mostly Sunny 63 17 46 8 56 56 S 9 15 29.91 1013 30 48 N/A
5:50 pm 17:50 Mostly Cloudy 63 17 46 8 56 56 S 9 15 29.91 1013 30 48 N/A
6:20 pm 18:20 Mostly Cloudy 63 17 46 8 56 56 SSW 7 11 29.91 1013 30 48 N/A
6:50 pm 18:50 Mostly Sunny 63 17 46 8 56 56 SSW 9 15 29.88 1012 7 11 N/A

Powered by AerisWeather